Location: Unspecified
(0.0000°N, 0.0000°E)
Time: 03:57:03
(UTC+00:00)

deb r/b Ablestar - Pass Details

Date: 24 September 2024
Orbit: 702 x 890 km, 66.9° (Epoch: 08 October)

Event Time Altitude Azimuth Distance (km) Brightness Sun altitude
Exits shadow 03:15:56 14° 126° (SE) 1,931 ? -39.0°
Drops below altitude 10° 03:16:48 10° 132° (SE) 2,215 ? -38.8°
Sets 03:19:26 0° 142° (SE) 3,164 ? -38.1°
